Regional Weather Roundup
Issued by NWS

Home | Current Version | Previous Version | Text Only | Print | Product List | Glossary On
Versions: 1 2 3 4 5 6 7 8 9 10 11 12 13 14 15 16 17 18 19 20 21 22 23 24 25 26 27 28 29 30 31 32 33 34 35 36 37 38 39 40 41 42 43 44 45 46 47 48 49 50
626
ASUS43 KMPX 291901
RWRMN
WEATHER ROUNDUP FOR MINNESOTA
NATIONAL WEATHER SERVICE TWIN CITIES/CHANHASSEN MN
200 PM CDT WED MAR 29 2017


NOTE: "FAIR" INDICATES FEW OR NO CLOUDS BELOW 12,000 FEET WITH NO
SIGNIFICANT WEATHER AND/OR OBSTRUCTIONS TO VISIBILITY. N/A MEANS
CURRENT SKY AND/OR WEATHER CONDITIONS ARE NOT AVAILABLE.

MNZ060>063-068>070-292000-
   Twin Cities Metro

CITY           SKY/WX    TMP DP  RH WIND       PRES   REMARKS
TWIN CITIES    CLOUDY    50  34  54 SE15      30.21F
ST PAUL        CLOUDY    50  35  56 S12       30.22F
CRYSTAL        CLOUDY    51  33  50 SE7       30.20F
BLAINE         CLOUDY    54  36  50 SE8       30.21F
LAKEVILLE      CLOUDY    46  36  66 SE12      30.21F
EDEN PRAIRIE   CLOUDY    51  34  52 SE12      30.20F
SOUTH ST PAUL  CLOUDY    49  34  54 SE5       30.22F
LAKE ELMO      FAIR      50  36  57 SE7       30.23F
$$
MNZ001>005-007-008-013>017-022>024-027-028-292000-
   Northwest Minnesota

CITY           SKY/WX    TMP DP  RH WIND       PRES   REMARKS
BEMIDJI        PTSUNNY   50  32  48 SE7       30.17F
HALLOCK        SUNNY     54  46  76 S13       30.09F
ROSEAU         SUNNY     59  39  47 S7        30.11F
WARROAD        SUNNY     52  37  58 NE6       30.13F
THIEF RVR FALL SUNNY     56  40  55 S8        30.13F
CROOKSTON      SUNNY     57  45  62 SW14      30.12F
FOSSTON        SUNNY     57  32  38 S14       30.14F
DETROIT LAKES  PTSUNNY   54  32  43 S9        30.16S
MOORHEAD       MOSUNNY   57  43  58 S10       30.14F
PARK RAPIDS    CLOUDY    50  29  44 SE8       30.17F
MAHNOMEN       FAIR      58  34  40 S9        30.14S
$$
MNZ006-009>011-018-025>026-292000-
   North Central Minnesota

CITY           SKY/WX    TMP DP  RH WIND       PRES   REMARKS
BAUDETTE       MOSUNNY   56  32  40 S9        30.15F
FLAG ISLAND    SUNNY     43  28  56 SW3       30.15F
INTL FALLS     MOSUNNY   51  30  44 SE10      30.20F
WASKISH        CLOUDY    57  34  41 SE7       30.16F
BIG FORK       CLOUDY    48  30  49 SE7       30.21S
LONGVILLE      CLOUDY    46  32  57 SE3       30.20F
GRAND RAPIDS   CLOUDY    45  31  58 SE9       30.23F
CRANE LAKE     CLOUDY    48  27  43 S6        30.26S
ORR            CLOUDY    48  27  43 S6        30.21S
COOK           PTSUNNY   46  28  49 SE8       30.24S
WALKER         FAIR      45  31  58 E3        30.19F
$$
MNZ012-019>021-037-292000-
   Northeast Minnesota

CITY           SKY/WX    TMP DP  RH WIND       PRES   REMARKS
DULUTH         PTSUNNY   38  31  76 E14       30.26F
ELY            CLOUDY    41  27  56 SE13      30.25F
HIBBING        CLOUDY    43  29  57 SE9       30.24F
EVELETH        CLOUDY    43  23  45 SE7       30.25F
DULUTH HARBOR  CLOUDY    36  34  93 NE21      30.31F
TWO HARBORS    CLOUDY    39  32  75 E16G22    30.28F
GRAND MARAIS     N/A     35  28  75 E18       30.36  WCI  24
G MARAIS ARPRT CLOUDY    34  21  60 E9        30.31F WCI  26
$$
MNZ029>031-032-039>041-046>048-054>057-064-292000-
   West Central Minnesota

CITY           SKY/WX    TMP DP  RH WIND       PRES   REMARKS
FERGUS FALLS   CLOUDY    55  36  47 SE10      30.18S
WHEATON        CLOUDY    57  37  47 SE9       30.16S
MORRIS         CLOUDY    55  39  54 SE10      30.13F
ALEXANDRIA     CLOUDY    51  36  56 SE14      30.16F
ELBOW LAKE     FAIR      56  37  48 SE10G18   30.15F
WADENA         CLOUDY    52  34  50 SE7       30.16F HAZE
GLENWOOD       CLOUDY    54  36  50 SE12      30.16F
APPLETON       CLOUDY    55  37  50 SE13      30.13F
BENSON         CLOUDY    57  25  28 S16       30.16F
ORTONVILLE     CLOUDY    55  37  50 SE10      30.12F
MADISON        CLOUDY    57  37  47 SE16      30.13F
WILLMAR        FAIR      54  37  54 SE16      30.18F
$$
MNZ033>034-036-042>043-049>051-058-059-292000-
   Central Minnesota

CITY           SKY/WX    TMP DP  RH WIND       PRES   REMARKS
ST CLOUD       CLOUDY    51  34  52 SE9       30.19F
SAUK CENTRE    FAIR      52  35  53 SE10      30.17F
PAYNESVILLE    PTSUNNY   51  36  57 SE9       30.18F
AITKIN         CLOUDY    50  30  46 SE8       30.20F
PINE RIVER     CLOUDY    46  34  61 SE8       30.22F
BRAINERD       CLOUDY    46  32  58 SE7       30.20F
STAPLES        CLOUDY    50  32  50 E6        30.17F
LONG PRAIRIE   FAIR      50  36  57 E10       30.18F
LITTLE FALLS   CLOUDY    50  32  50 SE8       30.19F
LITCHFIELD     CLOUDY    54  37  54 SE8       30.18F
BUFFALO        CLOUDY    51  33  49 E9        30.20F
MAPLE LAKE     PTSUNNY   51  38  60 E6        30.20F
HUTCHINSON     PTSUNNY   51  38  61 SE10      30.19F
$$
MNZ037-044-045-052-053-292000-
   East Central Minnesota

CITY           SKY/WX    TMP DP  RH WIND       PRES   REMARKS
PRINCETON      CLOUDY    52  34  50 E5        30.21F
MORA           CLOUDY    45  32  61 E3        30.25F
CAMBRIDGE      CLOUDY    52  36  54 E6        30.20F
RUSH CITY      CLOUDY    50  33  52 NE5       30.23F
MOOSE LAKE     CLOUDY    43  32  65 NE5       30.23F
CLOQUET        CLOUDY    37  30  75 E9        30.26F
MCGREGOR       CLOUDY    45  34  65 E8        30.23F
$$
MNZ071>073-080-081-089-090-097-098-292000-
   Southwest Minnesota

CITY           SKY/WX    TMP DP  RH WIND       PRES   REMARKS
MONTEVIDEO     PTSUNNY   55  30  38 S16       30.14F
GRANITE FALLS  CLOUDY    54  34  46 SE16G22   30.17S
CANBY          CLOUDY    57  36  44 SE15      30.13F
MARSHALL       CLOUDY    50  38  63 SE14      30.15F
REDWOOD FALLS  CLOUDY    50  35  56 SE16      30.16F
OLIVIA         CLOUDY    52  34  50 S16G22    30.16F
PIPESTONE      CLOUDY    48  34  57 E18       30.10F
WINDOM         DRIZZLE   48  37  66 E20G26    30.13F
WORTHINGTON    CLOUDY    47  37  68 E28G33    30.09F
JACKSON        DRIZZLE   45  37  76 E24G37    30.12F
TRACY          CLOUDY    50  39  65 SE20      30.15F
SLAYTON        CLOUDY    48  38  69 E18       30.13F
$$
MNZ065>067-074>077-082>085-091>093-292000-
   South Central Minnesota

CITY           SKY/WX    TMP DP  RH WIND       PRES   REMARKS
MANKATO        LGT RAIN  46  39  76 SE14      30.18F
NEW ULM        CLOUDY    48  36  61 E14       30.17F
ST JAMES       CLOUDY    46  39  76 E13G18    30.16F
FAIRMONT       LGT RAIN  46  39  76 E21G31    30.13F
GLENCOE        CLOUDY    51  39  63 SE9       30.18F
FARIBAULT      CLOUDY    48  37  66 E15       30.20F
OWATONNA       LGT RAIN  46  39  76 E14       30.19F
WASECA         LGT RAIN  45  37  76 E20G26    30.19F
ALBERT LEA     DRIZZLE   45  37  76 E16       30.16F
$$
MNZ078>079-086>088-094>096-292000-
   Southeast Minnesota

CITY           SKY/WX    TMP DP  RH WIND       PRES   REMARKS
ROCHESTER      LGT RAIN  44  40  85 E12       30.21F
RED WING       CLOUDY    48  32  53 SE12      30.23F
STANTON        CLOUDY    49  36  61 SE10      30.20F
DODGE CENTER   LGT RAIN  45  39  81 E17G24    30.20F
WINONA         LGT RAIN  41  37  87 SE6       30.26S
AUSTIN         CLOUDY    45  36  70 E16G23    30.16F
PRESTON        CLOUDY    42  35  76 NE12G17   30.19F
$$
ABBREVIATIONS USED IN REMARKS
   TC - TEMPERATURES IN CELSIUS
  WCI - WIND CHILL INDEX
   HX - HEAT INDEX
  VSB - VISIBILITY
$$




USA.gov is the U.S. government's official web portal to all federal, state and local government web resources and services.